Location: Proctor
(47.8934°N, 114.3048°W)
Time: 01:50:24
(UTC+00:00)

STRAND 1 - Pass Details

Date: 28 June 2022
Orbit: 767 x 781 km, 98.4° (Epoch: 07 August)

Event Time Altitude Azimuth Distance (km) Brightness Sun altitude
Rises 04:39:26 0° 359° (N) 3,276 ? -8.1°
Reaches altitude 10° 04:42:57 10° 334° (NNW) 2,340 ? -8.5°
Maximum altitude 04:45:21 13° 306° (NW) 2,100 ? -8.7°
Drops below altitude 10° 04:47:45 10° 278° (W) 2,329 ? -9.0°
Sets 04:51:15 0° 253° (WSW) 3,248 ? -9.3°
